Location: Boiro
(42.6475°N, 8.8834°W)
Time: 08:41:34
(UTC+01:00)

SR - Pass Details

Date: 02 December 2021
Orbit: 583 x 872 km, 66.7° (Epoch: 16 January)

Event Time Altitude Azimuth Distance (km) Brightness Sun altitude
Rises 00:31:22 0° 180° (S) 3,035 - -66.5°
Reaches altitude 10° 00:34:02 10° 168° (SSE) 2,074 - -66.7°
Maximum altitude 00:37:54 26° 112° (ESE) 1,239 - -67.1°
Drops below altitude 10° 00:41:35 10° 55° (NE) 1,968 - -67.4°
Sets 00:44:03 0° 43° (NE) 2,849 - -67.6°
